1360800025750,0.737381
1360800085750,0.736811
1360800145750,0.737677
1360800205750,0.737036
1360800265750,0.731340
1360800325750,0.744336
1360800385750,0.734993
1360800445750,0.732873
1360800505750,0.744954
1360800565750,0.740252
1360800625750,0.742508
1360800685750,0.738929
1360800745750,0.736280
1360800805750,0.737391
1360800865750,0.743278
1360800925750,0.735029
1360800985750,0.738682
1360801045750,0.741650
1360801105750,0.738669
1360801165750,0.737856
1360801225750,0.732794
1360801285750,0.738492
1360801345750,0.728259
1360801405750,0.742805
1360801465750,0.742460
1360801525750,0.736601
1360801585750,0.729206
1360801645750,0.739257
1360801705750,0.740108
1360801765750,0.733733
1360801825750,0.733634
1360801885750,0.740193
1360801945750,0.736910
1360802005750,0.736156
1360802065750,0.743691
1360802125750,0.739150
1360802185750,0.741014
1360802245750,0.735245
1360802305750,0.738527
1360802365750,0.734029
1360802425750,0.741131
1360802485750,0.731240
1360802545750,0.735752
1360802605750,0.734127
1360802665750,0.734014
1360802725750,0.735650
1360802785750,0.737652
1360802845750,0.739736
1360802905750,0.741040
1360802965750,0.735442
1360803025750,0.738499
1360803085750,0.732076
1360803145750,0.737959
1360803205750,0.737499
1360803265750,0.743611
1360803325750,0.741489
1360803385750,0.738620
1360803445750,0.735536
1360803505750,0.732923
1360803565750,0.740247
1360803625761,0.739881
1360803685761,0.733298
1360803745761,0.739540
1360803805761,0.734203
1360803865761,0.736245
1360803925761,0.736442
1360803985761,0.737138
1360804045761,0.730904
1360804105761,0.737014
1360804165761,0.734189
1360804225761,0.743437
1360804285761,0.739422
1360804345761,0.728161
1360804405761,0.736529
1360804465761,0.733978
1360804525761,0.735337
1360804585761,0.741955
1360804645761,0.733870
1360804705761,0.733424
1360804765761,0.733444
1360804825761,0.733910
1360804885761,0.739381
1360804945761,0.737748
1360805005761,0.734093
1360805065761,0.735733
1360805125761,0.738870
1360805185761,0.737824
1360805245761,0.737086
1360805305761,0.739607
1360805365761,0.742386
1360805425761,0.731446
1360805485761,0.737842
1360805545761,0.733031
1360805605761,0.725753
1360805665761,0.736540
1360805725761,0.738043
1360805785761,0.739551
1360805845761,0.742498
1360805905761,0.735416
1360805965761,0.735061
1360806025761,0.732318
1360806085761,0.741120
1360806145761,0.729299
1360806205761,0.735111
1360806265761,0.740534
1360806325761,0.737687
1360806385761,0.743260
1360806445761,0.728197
1360806505761,0.738781
1360806565761,0.735015
1360806625761,0.737148
1360806685761,0.741552
1360806745761,0.727412
1360806805761,0.735830
1360806865761,0.740271
1360806925761,0.730996
1360806985761,0.736278
1360807045761,0.739929
1360807105761,0.741560
1360807165761,0.740819
1360807225771,0.735609
1360807285771,0.742610
1360807345771,0.733593
1360807405771,0.740795
1360807465771,0.735582
1360807525771,0.736236
1360807585771,0.738826
1360807645771,0.734910
1360807705771,0.736829
1360807765771,0.732278
1360807825771,0.734491
1360807885771,0.736964
1360807945771,0.738660
1360808005771,0.739353
1360808065771,0.730644
1360808125771,0.739425
1360808185771,0.732770
1360808245771,0.737345
1360808305771,0.733404
1360808365771,0.738547
1360808425771,0.736245
1360808485771,0.735048
1360808545771,0.735926
1360808605771,0.733212
1360808665771,0.732433
1360808725771,0.737815
1360808785771,0.736023
1360808845771,0.732310
1360808905771,0.737258
1360808965771,0.741371
1360809025771,0.735696
1360809085771,0.739546
1360809145771,0.740020
1360809205771,0.733703
1360809265771,0.733467
1360809325771,0.737444
1360809385771,0.734696
1360809445771,0.735768
1360809505771,0.734511
1360809565771,0.737958
1360809625771,0.736632
1360809685771,0.737284
1360809745771,0.735383
1360809805771,0.737185
1360809865771,0.730376
1360809925771,0.742718
1360809985771,0.728550
1360810045771,0.730624
1360810105771,0.730567
1360810165771,0.740588
1360810225771,0.737211
1360810285771,0.734833
1360810345771,0.738877
1360810405771,0.737587
1360810465771,0.735475
1360810525771,0.739719
1360810585771,0.731271
1360810645771,0.736063
1360810705771,0.737265
1360810765771,0.726004
1360810825782,0.739878
1360810885782,0.731330
1360810945782,0.731750
1360811005782,0.735443
1360811065782,0.742752
1360811125782,0.745567
1360811185782,0.731296
1360811245782,0.740016
1360811305782,0.735952
1360811365782,0.738652
1360811425782,0.744735
1360811485782,0.732818
1360811545782,0.737241
1360811605782,0.741806
1360811665782,0.739396
1360811725782,0.738204
1360811785782,0.730837
1360811845782,0.737234
1360811905782,0.741044
1360811965782,0.734053
1360812025782,0.734185
1360812085782,0.734031
1360812145782,0.736521
1360812205782,0.744495
1360812265782,0.737549
1360812325782,0.733016
1360812385782,0.738673
1360812445782,0.737824
1360812505782,0.738966
1360812565782,0.734357
1360812625782,0.732593
1360812685782,0.734670
1360812745782,0.733370
1360812805782,0.737809
1360812865782,0.728328
1360812925782,0.737754
1360812985782,0.735320
1360813045782,0.743789
1360813105782,0.734404
1360813165782,0.734164
1360813225782,0.733622
1360813285782,0.738009
1360813345782,0.740415
1360813405782,0.734423
1360813465782,0.733871
1360813525782,0.736007
1360813585782,0.739008
1360813645782,0.743801
1360813705782,0.735542
1360813765782,0.734492
1360813825782,0.730077
1360813885782,0.735615
1360813945782,0.738616
1360814005782,0.742403
1360814065782,0.740735
1360814125782,0.740808
1360814185782,0.734467
1360814245782,0.738223
1360814305782,0.735557
1360814365782,0.739011
1360814425793,0.744525
1360814485793,0.747509
1360814545793,0.741557
1360814605793,0.742864
1360814665793,0.749274
1360814725793,0.747919
1360814785793,0.744282
1360814845793,0.737645
1360814905793,0.744677
1360814965793,0.737579
1360815025793,0.743377
1360815085793,0.744864
1360815145793,0.743210
1360815205793,0.742400
1360815265793,0.746101
1360815325793,0.755201
1360815385793,0.753983
1360815445793,0.754914
1360815505793,0.753088
1360815565793,0.766528
1360815625793,0.762731
1360815685793,0.763557
1360815745793,0.769038
1360815805793,0.773596
1360815865793,0.764682
1360815925793,0.773855
1360815985793,0.770773
1360816045793,0.774963
1360816105793,0.774606
1360816165793,0.778085
1360816225793,0.776419
1360816285793,0.772485
1360816345793,0.780734
1360816405793,0.773696
1360816465793,0.782652
1360816525793,0.785511
1360816585793,0.776830
1360816645793,0.778500
1360816705793,0.774952
1360816765793,0.771737
1360816825793,0.764181
1360816885793,0.761292
1360816945793,0.760879
1360817005793,0.758288
1360817065793,0.754138
1360817125793,0.753272
1360817185793,0.743025
1360817245793,0.752538
1360817305793,0.746527
1360817365793,0.743264
1360817425793,0.743702
1360817485793,0.746675
1360817545793,0.735387
1360817605793,0.742926
1360817665793,0.735481
1360817725793,0.742800
1360817785793,0.731850
1360817845793,0.738965
1360817905793,0.740152
1360817965793,0.733954
1360818025804,0.740243
1360818085804,0.745683
1360818145804,0.744947
1360818205804,0.734652
1360818265804,0.741615
1360818325804,0.739872
1360818385804,0.732704
1360818445804,0.740055
1360818505804,0.739969
1360818565804,0.732745
1360818685804,0.734944
1360818745804,0.740463
1360818805804,0.740007
1360818865804,0.736984
1360818925804,0.739282
1360818985804,0.732184
1360819045804,0.733998
1360819105804,0.735617
1360819165804,0.727625
1360819225804,0.745288
1360819285804,0.738727
1360819345804,0.738132
1360819405804,0.735938
1360819465804,0.735696
1360819525804,0.739948
1360819585804,0.739611
1360819645804,0.734107
1360819705804,0.736150
1360819765804,0.740506
1360819825804,0.740662
1360819885804,0.740899
1360819945804,0.732624
1360820005804,0.734823
1360820065804,0.731129
1360820125804,0.734831
1360820185804,0.735170
1360820245804,0.740775
1360820305804,0.735695
1360820365804,0.725827
1360820425804,0.730455
1360820485804,0.732540
1360820545804,0.729718
1360820605804,0.734450
1360820665804,0.737981
1360820725804,0.738274
1360820785804,0.734393
1360820845804,0.735790
1360820905804,0.741990
1360820965804,0.737916
1360821025804,0.735416
1360821085804,0.738302
1360821145804,0.737033
1360821205804,0.732064
1360821265804,0.731196
1360821325804,0.738227
1360821385804,0.730926
1360821445804,0.734567
1360821505804,0.729088
1360821565804,0.733567
1360821625815,0.728607
1360821685815,0.731974
1360821745815,0.733807
1360821805815,0.731044
1360821865815,0.743451
1360821925815,0.731919
1360821985815,0.740217
1360822045815,0.735520
1360822105815,0.736336
1360822165815,0.732425
1360822225815,0.730551
1360822285815,0.731146
1360822345815,0.739738
1360822405815,0.731820
1360822465815,0.738486
1360822525815,0.729031
1360822585815,0.732556
1360822645815,0.741664
1360822705815,0.735027
1360822765815,0.736363
1360822825815,0.738243
1360822885815,0.736859
1360822945815,0.738602
1360823005815,0.739603
1360823065815,0.734852
1360823125815,0.733203
1360823185815,0.733548
1360823245815,0.731484
1360823305815,0.728084
1360823365815,0.736223
1360823425815,0.734235
1360823485815,0.736754
1360823545815,0.736290
1360823605815,0.732659
1360823665815,0.727031
1360823725815,0.740813
1360823785815,0.728042
1360823845815,0.737567
1360823905815,0.735615
1360823965815,0.734144
1360824025815,0.738263
1360824085815,0.736915
1360824145815,0.738428
1360824205815,0.737237
1360824265815,0.735318
1360824325815,0.733793
1360824385815,0.736568
1360824445815,0.729958
1360824505815,0.737178
1360824565815,0.744499
1360824625815,0.737763
1360824685815,0.735966
1360824745815,0.740027
1360824805815,0.735433
1360824865815,0.736997
1360824925815,0.740212
1360824985815,0.734578
1360825045815,0.733220
1360825105815,0.734890
1360825165815,0.736241
1360825225826,0.734599
1360825285826,0.737550
1360825345826,0.737866
1360825405826,0.733509
1360825465826,0.741577
1360825525826,0.736417
1360825585826,0.736608
1360825645826,0.741639
1360825705826,0.734889
1360825765826,0.734364
1360825825826,0.742986
1360825885826,0.739921
1360825945826,0.745185
1360826005826,0.743387
1360826065826,0.738770
1360826125826,0.740936
1360826185826,0.740738
1360826245826,0.735688
1360826305826,0.731743
1360826365826,0.728596
1360826425826,0.737208
1360826485826,0.740968
1360826545826,0.734284
1360826605826,0.732850
1360826665826,0.744438
1360826725826,0.737892
1360826785826,0.740848
1360826845826,0.734228
1360826905826,0.739838
1360826965826,0.742362
1360827025826,0.731349
1360827085826,0.731370
1360827145826,0.736099
1360827205826,0.733149
1360827265826,0.729787
1360827325826,0.736774
1360827385826,0.741014
1360827445826,0.738351
1360827505826,0.738364
1360827565826,0.738077
1360827625826,0.739028
1360827685826,0.742036
1360827745826,0.740448
1360827805826,0.741255
1360827865826,0.736375
1360827925826,0.733259
1360827985826,0.734273
1360828045826,0.737062
1360828105826,0.735115
1360828165826,0.735391
1360828225826,0.731223
1360828285826,0.736212
1360828345826,0.735772
1360828405826,0.733252
1360828465826,0.732364
1360828525826,0.735999
1360828585826,0.742430
1360828645826,0.736966
1360828705826,0.736545
1360828765826,0.741110
1360828825837,0.736166
1360828885837,0.736903
1360828945837,0.741729
1360829005837,0.738389
1360829065837,0.732865
1360829125837,0.737466
1360829185837,0.736080
1360829245837,0.735582
1360829305837,0.735562
1360829365837,0.735877
1360829425837,0.737423
1360829485837,0.735963
1360829545837,0.747606
1360829605837,0.739813
1360829665837,0.736163
1360829725837,0.742919
1360829785837,0.737077
1360829845837,0.746497
1360829905837,0.735619
1360829965837,0.735438
1360830025837,0.737800
1360830085837,0.737787
1360830145837,0.743091
1360830205837,0.738078
1360830265837,0.742538
1360830325837,0.737174
1360830385837,0.743762
1360830445837,0.746108
1360830505837,0.733696
1360830565837,0.735416
1360830625837,0.742914
1360830685837,0.735185
1360830745837,0.741209
1360830805837,0.733309
1360830865837,0.735102
1360830925837,0.736899
1360830985837,0.732838
1360831045837,0.739497
1360831105837,0.735533
1360831165837,0.738682
1360831225837,0.732814
1360831285837,0.732679
1360831345837,0.731861
1360831405837,0.735928
1360831465837,0.731843
1360831525837,0.734509
1360831585837,0.742417
1360831645837,0.736564
1360831705837,0.730798
1360831765837,0.732494
1360831825837,0.729370
1360831885837,0.735165
1360831945837,0.739515
1360832005837,0.738088
1360832065837,0.742647
1360832125837,0.736816
1360832185837,0.740678
1360832245837,0.730896
1360832305837,0.732780
1360832365837,0.739781
1360832425848,0.743216
1360832485848,0.729536
1360832545848,0.734749
1360832605848,0.738957
1360832665848,0.735615
1360832725848,0.739216
1360832785848,0.732293
1360832845848,0.734862
1360832905848,0.739140
1360832965848,0.740102
1360833025848,0.734756
1360833085848,0.742115
1360833145848,0.735617
1360833205848,0.735066
1360833265848,0.736904
1360833325848,0.739390
1360833385848,0.740385
1360833445848,0.741420
1360833505848,0.733277
1360833565848,0.739352
1360833625848,0.731416
1360833685848,0.739312
1360833745848,0.734718
1360833805848,0.734080
1360833865848,0.737372
1360833925848,0.732805
1360833985848,0.735700
1360834045848,0.734367
1360834105848,0.738160
1360834165848,0.741142
1360834225848,0.732385
1360834285848,0.735823
1360834345848,0.739581
1360834405848,0.740761
1360834465848,0.733247
1360834525848,0.741513
1360834585848,0.736173
1360834645848,0.741793
1360834705848,0.738856
1360834765848,0.744037
1360834825848,0.737436
1360834885848,0.740635
1360834945848,0.733564
1360835005848,0.739847
1360835065848,0.739283
1360835125848,0.733775
1360835185848,0.739546
1360835245848,0.742068
1360835305848,0.735871
1360835365848,0.739122
1360835425848,0.735145
1360835485848,0.735676
1360835545848,0.737549
1360835605848,0.729009
1360835665848,0.736499
1360835725848,0.737812
1360835785848,0.743935
1360835845848,0.738075
1360835905848,0.740773
1360835965848,0.740098
1360836025859,0.735992
1360836085859,0.740897
1360836145859,0.743747
1360836205859,0.737270
1360836265859,0.737040
1360836325859,0.736530
1360836385859,0.736721
1360836445859,0.736338
1360836505859,0.734086
1360836565859,0.737214
1360836625859,0.741790
1360836685859,0.737076
1360836745859,0.734374
1360836805859,0.741818
1360836865859,0.734415
1360836925859,0.739089
1360836985859,0.745036
1360837045859,0.737663
1360837105859,0.735659
1360837165859,0.739377
1360837225859,0.738473
1360837285859,0.738610
1360837345859,0.739519
1360837405859,0.735753
1360837465859,0.740586
1360837525859,0.738040
1360837585859,0.732703
1360837645859,0.742710
1360837705859,0.742421
1360837765859,0.742941
1360837825859,0.743614
1360837885859,0.744717
1360837945859,0.740373
1360838005859,0.739970
1360838065859,0.735142
1360838125859,0.737898
1360838185859,0.733370
1360838245859,0.742922
1360838305859,0.740597
1360838365859,0.741881
1360838425859,0.734178
1360838485859,0.740359
1360838545859,0.748056
1360838605859,0.740976
1360838665859,0.742363
1360838725859,0.735703
1360838785859,0.737577
1360838845859,0.739862
1360838905859,0.737939
1360838965859,0.740699
1360839025859,0.736313
1360839085859,0.739471
1360839145859,0.732826
1360839205859,0.738279
1360839265859,0.733737
1360839325859,0.734187
1360839385859,0.737842
1360839445859,0.740365
1360839505859,0.741611
1360839565859,0.740908
1360839625871,0.742699
1360839685871,0.737723
1360839745870,0.736233
1360839805871,0.742519
1360839865871,0.735462
1360839925871,0.741609
1360839985871,0.735547
1360840045871,0.741754
1360840105871,0.740998
1360840165871,0.739926
1360840225871,0.737632
1360840285871,0.741720
1360840345871,0.735143
1360840405871,0.734413
1360840465871,0.739686
1360840525871,0.735175
1360840585871,0.733878
1360840645871,0.737630
1360840705871,0.740727
1360840765871,0.733058
1360840825871,0.736302
1360840885871,0.737666
1360840945871,0.743667
1360841005871,0.745600
1360841065871,0.738056
1360841125870,0.740543
1360841185871,0.744016
1360841245871,0.747980
1360841305871,0.737314
1360841365871,0.740327
1360841425871,0.738740
1360841485871,0.743076
1360841545871,0.742306
1360841605871,0.741391
1360841665871,0.742804
1360841725871,0.736767
1360841785871,0.737762
1360841845871,0.740101
1360841905871,0.751396
1360841965871,0.741036
1360842025871,0.745343
1360842085871,0.745326
1360842145871,0.743823
1360842205871,0.746135
1360842265871,0.738673
1360842325871,0.741198
1360842385871,0.745857
1360842445870,0.746600
1360842505871,0.741270
1360842565871,0.742986
1360842625871,0.745039
1360842685871,0.742257
1360842745871,0.740194
1360842805871,0.731274
1360842865871,0.745606
1360842925871,0.737820
1360842985871,0.744142
1360843045871,0.737189
1360843105871,0.740551
1360843165871,0.741504
1360843225882,0.740287
1360843285882,0.734732
1360843345882,0.737167
1360843405882,0.743571
1360843465882,0.741601
1360843525882,0.736161
1360843585882,0.736221
1360843645882,0.744402
1360843705882,0.739264
1360843765882,0.739916
1360843825882,0.736926
1360843885882,0.741893
1360843945882,0.743173
1360844005882,0.745411
1360844065882,0.736653
1360844125882,0.741369
1360844185882,0.741770
1360844245882,0.739604
1360844305882,0.739711
1360844365882,0.739617
1360844425882,0.743234
1360844485882,0.743921
1360844545882,0.731256
1360844605882,0.744550
1360844665882,0.738355
1360844725882,0.739588
1360844785882,0.743090
1360844845882,0.738801
1360844905882,0.741911
1360844965882,0.738541
1360845025882,0.732790
1360845085882,0.745342
1360845145882,0.739767
1360845205882,0.744165
1360845265882,0.750542
1360845325882,0.745856
1360845385882,0.747557
1360845445882,0.746462
1360845505882,0.742724
1360845565882,0.740767
1360845625882,0.740641
1360845685882,0.748623
1360845745882,0.737598
1360845805882,0.744534
1360845865882,0.743217
1360845925882,0.747158
1360845985882,0.737798
1360846045882,0.744186
1360846105882,0.741683
1360846165882,0.748188
1360846225882,0.749343
1360846285882,0.739241
1360846345882,0.739637
1360846405882,0.743410
1360846465882,0.741749
1360846525882,0.743479
1360846585882,0.742307
1360846645882,0.750229
1360846705882,0.744107
1360846765882,0.747225
1360846825893,0.744836
1360846885893,0.745287
1360846945893,0.748059
1360847005893,0.737436
1360847065893,0.747825
1360847125893,0.745827
1360847185893,0.748523
1360847245893,0.754159
1360847305893,0.749021
1360847365893,0.746002
1360847425893,0.750306
1360847485893,0.750169
1360847545893,0.738990
1360847605893,0.745523
1360847665893,0.748151
1360847725893,0.748291
1360847785893,0.748531
1360847845893,0.739881
1360847905893,0.742693
1360847965893,0.743835
1360848025893,0.746830
1360848085893,0.747149
1360848145893,0.741813
1360848205893,0.749792
1360848265893,0.751115
1360848325893,0.750988
1360848385893,0.749761
1360848445893,0.751670
1360848505893,0.743342
1360848565893,0.751047
1360848625893,0.749157
1360848685893,0.755302
1360848745893,0.759989
1360848805893,0.749829
1360848865893,0.750935
1360848925893,0.752953
1360848985893,0.756810
1360849045893,0.753601
1360849105893,0.745286
1360849165893,0.749342
1360849225893,0.746152
1360849285893,0.753234
1360849345893,0.746116
1360849405893,0.743794
1360849465893,0.757906
1360849525893,0.746171
1360849585893,0.751218
1360849645893,0.750698
1360849705893,0.752583
1360849765893,0.749476
1360849825893,0.748975
1360849885893,0.756850
1360849945893,0.750959
1360850005893,0.746250
1360850065893,0.756687
1360850125893,0.747472
1360850185893,0.751055
1360850245893,0.747969
1360850305893,0.751757
1360850365893,0.748710
1360850425904,0.743736
1360850485904,0.750147
1360850545904,0.748492
1360850605904,0.750008
1360850665904,0.749601
1360850725904,0.745932
1360850785904,0.747935
1360850845904,0.749196
1360850905904,0.746559
1360850965904,0.748893
1360851025904,0.752262
1360851085904,0.744866
1360851145904,0.747843
1360851205904,0.747688
1360851265904,0.751158
1360851325904,0.747585
1360851385904,0.744786
1360851445904,0.743050
1360851505904,0.746685
1360851565904,0.753383
1360851625904,0.743462
1360851685904,0.746721
1360851745904,0.751462
1360851805904,0.744101
1360851865904,0.752017
1360851925904,0.745749
1360851985904,0.745516
1360852045904,0.747602
1360852105904,0.743997
1360852165904,0.741730
1360852225904,0.747524
1360852285904,0.745761
1360852345904,0.750156
1360852405904,0.750305
1360852465904,0.750240
1360852525904,0.744566
1360852585904,0.749105
1360852645904,0.755422
1360852705904,0.748703
1360852765904,0.749549
1360852825904,0.745491
1360852885904,0.748638
1360852945904,0.753860
1360853005904,0.755112
1360853065904,0.758855
1360853125904,0.754653
1360853185904,0.753167
1360853245904,0.748688
1360853305904,0.745811
1360853365904,0.754026
1360853425904,0.747057
1360853485904,0.753245
1360853545904,0.753486
1360853605904,0.752770
1360853665904,0.748743
1360853725904,0.751272
1360853785904,0.746133
1360853845904,0.755325
1360853905904,0.749158
1360853965904,0.750329
1360854025915,0.755802
1360854085915,0.751649
1360854145915,0.749885
1360854205915,0.751465
1360854265915,0.751790
1360854325915,0.758658
1360854385915,0.753484
1360854445915,0.751209
1360854505915,0.757363
1360854565915,0.748717
1360854625915,0.755751
1360854685915,0.751934
1360854745915,0.758387
1360854805915,0.752295
1360854865915,0.745189
1360854925915,0.752281
1360854985915,0.753949
1360855045915,0.747452
1360855105915,0.751383
1360855165915,0.752958
1360855225915,0.752488
1360855285915,0.744931
1360855345915,0.749883
1360855405915,0.754283
1360855465915,0.752026
1360855525915,0.748529
1360855585915,0.748068
1360855645915,0.747032
1360855705915,0.753217
1360855765915,0.748332
1360855825915,0.746577
1360855885915,0.749007
1360855945915,0.752450
1360856005915,0.749519
1360856065915,0.753912
1360856125915,0.751778
1360856185915,0.746085
1360856245915,0.751616
1360856305915,0.754498
1360856365915,0.754865
1360856425915,0.745512
1360856485915,0.755949
1360856545915,0.746591
1360856605915,0.756361
1360856665915,0.745887
1360856725915,0.752970
1360856785915,0.754000
1360856845915,0.746157
1360856905915,0.752536
1360856965915,0.747953
1360857025915,0.751969
1360857085915,0.750519
1360857145915,0.750243
1360857205915,0.754354
1360857265915,0.755887
1360857325915,0.751081
1360857385915,0.762654
1360857445915,0.756103
1360857505915,0.754319
1360857565915,0.759816
1360857625926,0.756296
1360857685926,0.759317
1360857745926,0.753666
1360857805926,0.750547
1360857865926,0.754942
1360857925926,0.752009
1360857985926,0.756541
1360858045926,0.756382
1360858105926,0.757012
1360858165926,0.758228
1360858225926,0.753627
1360858285926,0.746841
1360858345926,0.749649
1360858405926,0.754619
1360858465926,0.750968
1360858525926,0.751195
1360858585926,0.750282
1360858645926,0.753062
1360858705926,0.754082
1360858765926,0.748690
1360858825926,0.756165
1360858885926,0.752987
1360858945926,0.757928
1360859005926,0.749695
1360859065926,0.756231
1360859125926,0.749436
1360859185926,0.747045
1360859245926,0.751710
1360859305926,0.755287
1360859365926,0.754314
1360859425926,0.751168
1360859485926,0.750587
1360859545926,0.755440
1360859605926,0.744667
1360859665926,0.752624
1360859725926,0.752469
1360859785926,0.755574
1360859845926,0.747586
1360859905926,0.751636
1360859965926,0.750771
1360860025926,0.753375
1360860085926,0.756828
1360860145926,0.742730
1360860205926,0.753609
1360860265926,0.751044
1360860325926,0.746952
1360860385926,0.751666
1360860445926,0.744436
1360860505926,0.750732
1360860565926,0.746658
1360860625926,0.749328
1360860685926,0.750168
1360860745926,0.751312
1360860805926,0.749965
1360860865926,0.751940
1360860925926,0.751153
1360860985926,0.755145
1360861045926,0.753747
1360861105926,0.750252
1360861165926,0.757305
1360861225937,0.749700
1360861285937,0.756355
1360861345937,0.751302
1360861405937,0.753907
1360861465937,0.755220
1360861525937,0.758678
1360861585937,0.750452
1360861645937,0.754174
1360861705937,0.755927
1360861765937,0.753994
1360861825937,0.760613
1360861885937,0.754088
1360861945937,0.750599
1360862005937,0.747570
1360862065937,0.754610
1360862125937,0.762813
1360862185937,0.765646
1360862245937,0.753160
1360862305937,0.760626
1360862365937,0.755295
1360862425937,0.754508
1360862485937,0.756604
1360862545937,0.758969
1360862605937,0.758375